Time,TemperatureF,DewpointF,PressureIn,WindDirection,WindDirectionDegrees,WindSpeedMPH,WindSpeedGustMPH,Humidity,HourlyPrecipIn,Conditions,Clouds,dailyrainin,SoftwareType,DateUTC
2017-06-27 00:01:00,80.3,72.0,30.06,South,180,1.0,-999.0,76,0.00,,,0.00,,2017-06-27 04:01:00,
2017-06-27 00:06:00,80.3,72.0,30.06,SSE,158,0.0,-999.0,76,0.00,,,0.00,,2017-06-27 04:06:00,
2017-06-27 00:11:00,80.3,72.0,30.05,South,180,1.0,-999.0,76,0.00,,,0.00,,2017-06-27 04:11:00,
2017-06-27 00:16:00,80.3,72.0,30.06,South,180,0.0,-999.0,76,0.00,,,0.00,,2017-06-27 04:16:00,
2017-06-27 00:21:00,80.5,73.0,30.06,South,180,0.0,-999.0,78,0.00,,,0.00,,2017-06-27 04:21:00,
2017-06-27 00:26:00,80.3,72.0,30.06,ENE,68,1.0,-999.0,78,0.00,,,0.00,,2017-06-27 04:26:00,
2017-06-27 00:31:00,80.5,73.0,30.06,SSE,158,1.0,-999.0,78,0.00,,,0.00,,2017-06-27 04:31:00,
2017-06-27 00:36:00,80.5,73.0,30.06,South,180,0.0,-999.0,78,0.00,,,0.00,,2017-06-27 04:36:00,
2017-06-27 00:41:00,80.7,73.0,30.06,South,180,1.0,-999.0,78,0.00,,,0.00,,2017-06-27 04:41:00,
2017-06-27 00:46:00,80.7,73.0,30.07,South,180,0.0,-999.0,78,0.00,,,0.00,,2017-06-27 04:46:00,
2017-06-27 00:51:00,80.5,73.0,30.06,South,180,0.0,-999.0,78,0.00,,,0.00,,2017-06-27 04:51:00,
2017-06-27 00:57:00,80.5,73.0,30.06,South,180,0.0,-999.0,78,0.00,,,0.00,,2017-06-27 04:57:00,
2017-06-27 01:02:00,80.3,72.0,30.06,South,180,0.0,-999.0,78,0.00,,,0.00,,2017-06-27 05:02:00,
2017-06-27 01:07:00,80.3,72.0,30.06,South,180,0.0,-999.0,78,0.00,,,0.00,,2017-06-27 05:07:00,
2017-06-27 01:12:00,80.5,73.0,30.06,South,180,0.0,-999.0,78,0.00,,,0.00,,2017-06-27 05:12:00,
2017-06-27 01:17:00,80.3,72.0,30.05,South,180,0.0,-999.0,78,0.00,,,0.00,,2017-06-27 05:17:00,
2017-06-27 01:22:00,80.3,72.0,30.05,South,180,0.0,-999.0,78,0.00,,,0.00,,2017-06-27 05:22:00,
2017-06-27 01:27:00,80.3,73.0,30.05,South,180,0.0,-999.0,79,0.00,,,0.00,,2017-06-27 05:27:00,
2017-06-27 01:32:00,80.3,73.0,30.06,South,180,0.0,-999.0,79,0.00,,,0.00,,2017-06-27 05:32:00,
2017-06-27 01:37:00,80.3,73.0,30.04,South,180,0.0,-999.0,79,0.00,,,0.00,,2017-06-27 05:37:00,
2017-06-27 01:42:00,80.3,73.0,30.04,South,180,0.0,-999.0,79,0.00,,,0.00,,2017-06-27 05:42:00,
2017-06-27 01:48:00,80.1,73.0,30.05,South,180,0.0,-999.0,79,0.00,,,0.00,,2017-06-27 05:48:00,
2017-06-27 01:53:00,80.1,73.0,30.05,South,180,0.0,-999.0,79,0.00,,,0.00,,2017-06-27 05:53:00,
2017-06-27 01:58:00,80.1,72.0,30.05,South,180,0.0,-999.0,79,0.00,,,0.00,,2017-06-27 05:58:00,
2017-06-27 02:03:00,79.6,72.0,30.04,South,180,0.0,-999.0,79,0.00,,,0.00,,2017-06-27 06:03:00,
2017-06-27 02:08:00,79.4,72.0,30.04,South,180,0.0,-999.0,79,0.00,,,0.00,,2017-06-27 06:08:00,
2017-06-27 02:13:00,79.6,72.0,30.04,South,180,0.0,-999.0,80,0.00,,,0.00,,2017-06-27 06:13:00,
2017-06-27 02:18:00,79.4,72.0,30.04,South,180,0.0,-999.0,80,0.00,,,0.00,,2017-06-27 06:18:00,
2017-06-27 02:23:00,79.4,72.0,30.03,South,180,0.0,-999.0,79,0.00,,,0.00,,2017-06-27 06:23:00,
2017-06-27 02:28:00,79.1,72.0,30.04,South,180,0.0,-999.0,79,0.00,,,0.00,,2017-06-27 06:28:00,
2017-06-27 02:33:00,79.0,71.0,30.03,South,180,0.0,-999.0,79,0.00,,,0.00,,2017-06-27 06:33:00,
2017-06-27 02:38:00,79.0,71.0,30.03,South,180,0.0,-999.0,78,0.00,,,0.00,,2017-06-27 06:38:00,
2017-06-27 02:43:00,78.8,71.0,30.03,South,180,0.0,-999.0,78,0.00,,,0.00,,2017-06-27 06:43:00,
2017-06-27 02:48:00,78.4,70.0,30.03,South,180,0.0,-999.0,78,0.00,,,0.00,,2017-06-27 06:48:00,
2017-06-27 02:53:00,78.4,70.0,30.03,South,180,0.0,-999.0,78,0.00,,,0.00,,2017-06-27 06:53:00,
2017-06-27 02:58:00,78.3,71.0,30.02,South,180,0.0,-999.0,79,0.00,,,0.00,,2017-06-27 06:58:00,
2017-06-27 03:03:00,78.3,71.0,30.02,South,180,0.0,-999.0,79,0.00,,,0.00,,2017-06-27 07:03:00,
2017-06-27 03:09:00,78.1,71.0,30.02,East,90,0.0,-999.0,79,0.00,,,0.00,,2017-06-27 07:09:00,
2017-06-27 03:14:00,77.8,71.0,30.02,SE,135,0.0,-999.0,80,0.00,,,0.00,,2017-06-27 07:14:00,
2017-06-27 03:19:00,77.8,71.0,30.02,South,180,0.0,-999.0,80,0.00,,,0.00,,2017-06-27 07:19:00,
2017-06-27 03:24:00,77.8,71.0,30.02,South,180,0.0,-999.0,80,0.00,,,0.00,,2017-06-27 07:24:00,
2017-06-27 03:29:00,77.6,71.0,30.03,South,180,0.0,-999.0,80,0.00,,,0.00,,2017-06-27 07:29:00,
2017-06-27 03:34:00,78.1,72.0,30.02,South,180,0.0,-999.0,81,0.00,,,0.00,,2017-06-27 07:34:00,
2017-06-27 03:39:00,77.8,71.0,30.02,South,180,0.0,-999.0,81,0.00,,,0.00,,2017-06-27 07:39:00,
2017-06-27 03:44:00,77.6,71.0,30.01,SSE,158,0.0,-999.0,81,0.00,,,0.00,,2017-06-27 07:44:00,
2017-06-27 03:49:00,77.5,71.0,30.01,South,180,0.0,-999.0,81,0.00,,,0.00,,2017-06-27 07:49:00,
2017-06-27 03:54:00,77.4,71.0,30.02,ESE,113,0.0,-999.0,81,0.00,,,0.00,,2017-06-27 07:54:00,
2017-06-27 03:59:00,77.4,71.0,30.02,South,180,0.0,-999.0,81,0.00,,,0.00,,2017-06-27 07:59:00,
2017-06-27 04:04:00,77.1,71.0,30.01,South,180,0.0,-999.0,81,0.00,,,0.00,,2017-06-27 08:04:00,
2017-06-27 04:09:00,77.1,71.0,30.01,South,180,0.0,-999.0,81,0.00,,,0.00,,2017-06-27 08:09:00,
2017-06-27 04:14:00,76.9,71.0,30.01,South,180,0.0,-999.0,81,0.00,,,0.00,,2017-06-27 08:14:00,
2017-06-27 04:15:00,76.9,71.0,30.01,South,180,0.0,-999.0,81,0.00,,,0.00,,2017-06-27 08:15:00,
2017-06-27 04:20:00,77.1,71.0,30.00,South,180,0.0,-999.0,81,0.00,,,0.00,,2017-06-27 08:20:00,
2017-06-27 04:25:00,77.4,71.0,30.01,South,180,0.0,-999.0,81,0.00,,,0.00,,2017-06-27 08:25:00,
2017-06-27 04:30:00,77.1,71.0,30.01,South,180,0.0,-999.0,81,0.00,,,0.00,,2017-06-27 08:30:00,
2017-06-27 04:35:00,76.9,71.0,30.00,South,180,0.0,-999.0,81,0.00,,,0.00,,2017-06-27 08:35:00,
2017-06-27 04:40:00,76.8,70.0,30.00,South,180,0.0,-999.0,81,0.00,,,0.00,,2017-06-27 08:40:00,
2017-06-27 04:45:00,76.8,70.0,30.00,South,180,0.0,-999.0,81,0.00,,,0.00,,2017-06-27 08:45:00,
2017-06-27 04:47:00,76.8,70.0,30.00,South,180,0.0,-999.0,81,0.00,,,0.00,,2017-06-27 08:47:00,
2017-06-27 04:52:00,76.8,70.0,30.00,South,180,0.0,-999.0,81,0.00,,,0.00,,2017-06-27 08:52:00,
2017-06-27 04:57:00,77.4,72.0,30.01,South,180,0.0,-999.0,83,0.00,,,0.00,,2017-06-27 08:57:00,
2017-06-27 05:02:00,76.9,71.0,30.00,South,180,0.0,-999.0,83,0.00,,,0.00,,2017-06-27 09:02:00,
2017-06-27 05:08:00,76.8,71.0,30.00,South,180,0.0,-999.0,83,0.00,,,0.00,,2017-06-27 09:08:00,
2017-06-27 05:13:00,76.8,71.0,30.00,South,180,0.0,-999.0,83,0.00,,,0.00,,2017-06-27 09:13:00,
2017-06-27 05:18:00,76.5,71.0,30.00,South,180,0.0,-999.0,83,0.00,,,0.00,,2017-06-27 09:18:00,
2017-06-27 05:23:00,76.4,71.0,30.00,South,180,0.0,-999.0,83,0.00,,,0.00,,2017-06-27 09:23:00,
2017-06-27 05:28:00,76.4,71.0,30.00,South,180,0.0,-999.0,83,0.00,,,0.00,,2017-06-27 09:28:00,
2017-06-27 05:33:00,76.4,71.0,30.01,South,180,0.0,-999.0,83,0.00,,,0.00,,2017-06-27 09:33:00,
2017-06-27 05:38:00,76.4,71.0,30.00,South,180,0.0,-999.0,83,0.00,,,0.00,,2017-06-27 09:38:00,
2017-06-27 05:43:00,76.5,71.0,30.00,South,180,0.0,-999.0,83,0.00,,,0.00,,2017-06-27 09:43:00,
2017-06-27 05:48:00,76.4,71.0,30.01,South,180,0.0,-999.0,83,0.00,,,0.00,,2017-06-27 09:48:00,
2017-06-27 05:53:00,76.4,71.0,30.00,South,180,0.0,-999.0,83,0.00,,,0.00,,2017-06-27 09:53:00,
2017-06-27 05:58:00,76.4,71.0,30.00,South,180,0.0,-999.0,83,0.00,,,0.00,,2017-06-27 09:58:00,
2017-06-27 06:03:00,76.5,71.0,29.99,South,180,0.0,-999.0,85,0.00,,,0.00,,2017-06-27 10:03:00,
2017-06-27 06:08:00,76.4,71.0,30.00,South,180,0.0,-999.0,85,0.00,,,0.00,,2017-06-27 10:08:00,
2017-06-27 06:13:00,76.4,71.0,29.99,South,180,0.0,-999.0,85,0.00,,,0.00,,2017-06-27 10:13:00,
2017-06-27 06:18:00,76.4,71.0,30.00,NNE,23,0.0,-999.0,85,0.00,,,0.00,,2017-06-27 10:18:00,
2017-06-27 06:23:00,76.5,71.0,30.00,North,0,0.0,-999.0,85,0.00,,,0.00,,2017-06-27 10:23:00,
2017-06-27 06:28:00,76.9,72.0,29.99,North,0,0.0,-999.0,85,0.00,,,0.00,,2017-06-27 10:28:00,
2017-06-27 06:33:00,76.9,72.0,29.99,NNE,23,0.0,-999.0,86,0.00,,,0.00,,2017-06-27 10:33:00,
2017-06-27 06:38:00,76.9,72.0,30.01,South,180,0.0,-999.0,86,0.00,,,0.00,,2017-06-27 10:38:00,
2017-06-27 06:43:00,77.4,72.0,30.00,South,180,0.0,-999.0,86,0.00,,,0.00,,2017-06-27 10:43:00,
2017-06-27 06:48:00,77.1,72.0,30.00,South,180,0.0,-999.0,86,0.00,,,0.00,,2017-06-27 10:48:00,
2017-06-27 06:53:00,77.1,72.0,30.00,South,180,0.0,-999.0,86,0.00,,,0.00,,2017-06-27 10:53:00,
2017-06-27 06:58:00,77.1,72.0,30.00,South,180,0.0,-999.0,86,0.00,,,0.00,,2017-06-27 10:58:00,
2017-06-27 07:03:00,77.4,72.0,30.00,South,180,0.0,-999.0,86,0.00,,,0.00,,2017-06-27 11:03:00,
2017-06-27 07:08:00,77.8,73.0,30.00,South,180,0.0,-999.0,86,0.00,,,0.00,,2017-06-27 11:08:00,
2017-06-27 07:13:00,78.3,73.0,30.01,South,180,0.0,-999.0,85,0.00,,,0.00,,2017-06-27 11:13:00,
2017-06-27 07:18:00,78.5,73.0,30.00,South,180,0.0,-999.0,83,0.00,,,0.00,,2017-06-27 11:18:00,
2017-06-27 07:23:00,79.4,72.0,30.01,South,180,0.0,-999.0,80,0.00,,,0.00,,2017-06-27 11:23:00,
2017-06-27 07:28:00,80.1,73.0,30.01,South,180,0.0,-999.0,79,0.00,,,0.00,,2017-06-27 11:28:00,
2017-06-27 07:33:00,80.7,73.0,30.00,South,180,0.0,-999.0,78,0.00,,,0.00,,2017-06-27 11:33:00,
2017-06-27 07:38:00,80.5,73.0,30.01,South,180,0.0,-999.0,78,0.00,,,0.00,,2017-06-27 11:38:00,
2017-06-27 07:43:00,81.9,73.0,30.01,North,0,0.0,-999.0,75,0.00,,,0.00,,2017-06-27 11:43:00,
2017-06-27 07:48:00,81.9,73.0,30.01,South,180,0.0,-999.0,75,0.00,,,0.00,,2017-06-27 11:48:00,
2017-06-27 07:53:00,81.9,73.0,30.02,South,180,0.0,-999.0,75,0.00,,,0.00,,2017-06-27 11:53:00,
2017-06-27 07:58:00,82.8,73.0,30.01,South,180,0.0,-999.0,74,0.00,,,0.00,,2017-06-27 11:58:00,
2017-06-27 08:03:00,83.5,73.0,30.02,South,180,0.0,-999.0,71,0.00,,,0.00,,2017-06-27 12:03:00,
2017-06-27 08:08:00,83.2,73.0,30.02,South,180,1.0,-999.0,71,0.00,,,0.00,,2017-06-27 12:08:00,
2017-06-27 08:13:00,84.2,73.0,30.01,South,180,0.0,-999.0,70,0.00,,,0.00,,2017-06-27 12:13:00,
2017-06-27 08:18:00,83.5,73.0,30.02,South,180,0.0,-999.0,71,0.00,,,0.00,,2017-06-27 12:18:00,
2017-06-27 08:23:00,84.6,73.0,30.01,SSW,203,1.0,-999.0,70,0.00,,,0.00,,2017-06-27 12:23:00,
2017-06-27 08:28:00,83.9,73.0,30.02,SSW,203,1.0,-999.0,70,0.00,,,0.00,,2017-06-27 12:28:00,
2017-06-27 08:33:00,84.2,73.0,30.01,South,180,1.0,-999.0,70,0.00,,,0.00,,2017-06-27 12:33:00,
2017-06-27 08:38:00,84.2,73.0,30.01,North,0,1.0,-999.0,70,0.00,,,0.00,,2017-06-27 12:38:00,
2017-06-27 08:44:00,85.1,73.0,30.02,SW,225,0.0,-999.0,68,0.00,,,0.00,,2017-06-27 12:44:00,
2017-06-27 08:49:00,85.1,73.0,30.01,South,180,1.0,-999.0,69,0.00,,,0.00,,2017-06-27 12:49:00,
2017-06-27 08:54:00,85.3,73.0,30.01,SW,225,1.0,-999.0,66,0.00,,,0.00,,2017-06-27 12:54:00,
2017-06-27 08:59:00,85.5,72.0,30.01,North,0,1.0,-999.0,65,0.00,,,0.00,,2017-06-27 12:59:00,
2017-06-27 09:04:00,86.4,73.0,30.02,South,180,0.0,-999.0,65,0.00,,,0.00,,2017-06-27 13:04:00,
2017-06-27 09:09:00,86.4,73.0,30.01,South,180,1.0,-999.0,65,0.00,,,0.00,,2017-06-27 13:09:00,
2017-06-27 09:14:00,84.8,72.0,30.01,WSW,248,3.0,-999.0,66,0.00,,,0.00,,2017-06-27 13:14:00,
2017-06-27 09:19:00,84.8,72.0,30.02,NW,315,1.0,-999.0,65,0.00,,,0.00,,2017-06-27 13:19:00,
2017-06-27 09:24:00,84.4,72.0,30.01,SW,225,0.0,-999.0,68,0.00,,,0.00,,2017-06-27 13:24:00,
2017-06-27 09:30:00,84.2,72.0,30.02,SSW,203,0.0,-999.0,69,0.00,,,0.00,,2017-06-27 13:30:00,
2017-06-27 09:35:00,85.3,73.0,30.01,West,270,0.0,-999.0,66,0.00,,,0.00,,2017-06-27 13:35:00,
2017-06-27 09:40:00,85.3,73.0,30.02,WSW,248,0.0,-999.0,66,0.00,,,0.00,,2017-06-27 13:40:00,
2017-06-27 10:02:00,85.3,73.0,30.01,SSW,203,0.0,-999.0,66,0.00,,,0.00,,2017-06-27 14:02:00,
2017-06-27 10:07:00,89.4,73.0,30.02,South,180,0.0,-999.0,59,0.00,,,0.00,,2017-06-27 14:07:00,
2017-06-27 10:12:00,90.1,73.0,30.01,East,90,4.0,-999.0,58,0.00,,,0.00,,2017-06-27 14:12:00,
2017-06-27 10:17:00,88.9,72.0,30.02,South,180,2.0,-999.0,58,0.00,,,0.00,,2017-06-27 14:17:00,
2017-06-27 10:22:00,90.0,72.0,30.01,South,180,0.0,-999.0,56,0.00,,,0.00,,2017-06-27 14:22:00,
2017-06-27 10:27:00,89.8,72.0,30.02,South,180,1.0,-999.0,55,0.00,,,0.00,,2017-06-27 14:27:00,
2017-06-27 10:32:00,89.8,72.0,30.02,SW,225,1.0,-999.0,55,0.00,,,0.00,,2017-06-27 14:32:00,
2017-06-27 10:37:00,89.0,71.0,30.01,NW,315,3.0,-999.0,56,0.00,,,0.00,,2017-06-27 14:37:00,
2017-06-27 10:42:00,88.9,71.0,30.02,WSW,248,3.0,-999.0,56,0.00,,,0.00,,2017-06-27 14:42:00,
2017-06-27 10:47:00,89.8,73.0,30.01,West,270,3.0,-999.0,58,0.00,,,0.00,,2017-06-27 14:47:00,
2017-06-27 10:52:00,89.0,73.0,30.01,West,270,2.0,-999.0,60,0.00,,,0.00,,2017-06-27 14:52:00,
2017-06-27 10:57:00,88.0,71.0,30.01,SSW,203,2.0,-999.0,58,0.00,,,0.00,,2017-06-27 14:57:00,
2017-06-27 11:02:00,90.1,71.0,30.01,South,180,0.0,-999.0,55,0.00,,,0.00,,2017-06-27 15:02:00,
2017-06-27 11:07:00,88.1,72.0,30.02,SSW,203,2.0,-999.0,59,0.00,,,0.00,,2017-06-27 15:07:00,
2017-06-27 11:12:00,87.6,70.0,30.01,SW,225,0.0,-999.0,58,0.00,,,0.00,,2017-06-27 15:12:00,
2017-06-27 11:17:00,88.1,70.0,30.00,WSW,248,2.0,-999.0,55,0.00,,,0.00,,2017-06-27 15:17:00,
2017-06-27 11:28:00,91.8,69.0,30.01,South,180,1.0,-999.0,48,0.00,,,0.00,,2017-06-27 15:28:00,
2017-06-27 11:33:00,92.3,70.0,30.00,SW,225,2.0,-999.0,50,0.00,,,0.00,,2017-06-27 15:33:00,
2017-06-27 11:42:00,90.9,71.0,30.00,SSW,203,1.0,-999.0,53,0.00,,,0.00,,2017-06-27 15:42:00,
2017-06-27 11:55:00,88.9,71.0,29.99,South,180,0.0,-999.0,55,0.00,,,0.00,,2017-06-27 15:55:00,
2017-06-27 12:00:00,88.9,71.0,30.01,South,180,0.0,-999.0,55,0.00,,,0.00,,2017-06-27 16:00:00,
2017-06-27 12:07:00,92.3,69.0,29.99,SSW,203,0.0,-999.0,48,0.00,,,0.00,,2017-06-27 16:07:00,
2017-06-27 12:25:00,92.3,70.0,29.99,SSW,203,1.0,-999.0,49,0.00,,,0.00,,2017-06-27 16:25:00,
2017-06-27 12:42:00,94.6,66.0,29.99,South,180,0.0,-999.0,40,0.00,,,0.00,,2017-06-27 16:42:00,
2017-06-27 12:47:00,95.3,65.0,29.99,SW,225,3.0,-999.0,37,0.00,,,0.00,,2017-06-27 16:47:00,
2017-06-27 13:10:00,94.8,67.0,29.99,WSW,248,2.0,-999.0,40,0.00,,,0.00,,2017-06-27 17:10:00,
2017-06-27 13:20:00,95.0,66.0,29.98,North,0,3.0,-999.0,40,0.00,,,0.00,,2017-06-27 17:20:00,
2017-06-27 13:32:00,95.9,71.0,29.98,South,180,1.0,-999.0,45,0.00,,,0.00,,2017-06-27 17:32:00,
2017-06-27 14:00:00,92.3,72.0,29.98,South,180,1.0,-999.0,53,0.00,,,0.00,,2017-06-27 18:00:00,